Skip Page Navigation
NASA JPL Caltech
NASA Logo - Jet Propulsion Laboratory + View the NASA Portal
+ Center for Near-Earth Object Studies
JPL Home Earth Solar System Stars & Galaxies Technology
JPL Solar System Dynamics
BODIES ORBITS EPHEMERIDES TOOLS PHYSICAL DATA DISCOVERY FAQ SITE MAP
IMPORTANT: The SSD Announcement email list is now available. Major changes are coming in the near future, including possible hostname and/or URL changes. To be notified of such changes, subscribe to this email list.

Please visit this page for more details.


JPL Small-Body Database Browser
Search: [ help ]  
469375 (2001 RN135)
Classification: Main-belt Asteroid          SPK-ID: 2469375
Ephemeris | Orbit Diagram | Orbital Elements | Mission Design | Physical Parameters | Discovery Circumstances ]

[ show orbit diagram ]
Orbital Elements at Epoch 2458600.5 (2019-Apr-27.0) TDB
Reference: JPL 13 (heliocentric ecliptic J2000)
 Element Value Uncertainty (1-sigma)   Units 
e .2464828583488001 8.5465e-08  
a 2.418220389190606 1.2785e-08 au
q 1.822170515545558 2.1082e-07 au
i 3.81024449917431 7.3085e-06 deg
node 121.354992706427 0.00010788 deg
peri 210.384916013022 0.00010898 deg
M 260.2721203375124 1.2198e-05 deg
tp 2458981.001461737746
(2020-May-11.50146174)
4.6852e-05 TDB
period 1373.542951972671
3.76
1.0893e-05
2.982e-08
d
yr
n .2620959173376929 2.0785e-09 deg/d
Q 3.014270262835655 1.5936e-08 au
  Orbit Determination Parameters
   # obs. used (total)      144  
   data-arc span      6460 days (17.69 yr)  
   first obs. used      2001-09-12  
   last obs. used      2019-05-21  
   planetary ephem.      DE431  
   SB-pert. ephem.      SB431-N16  
   condition code      0  
   norm. resid. RMS      .53706  
   source      ORB  
   producer      Otto Matic  
   solution date      2019-Jul-13 15:09:52  

Additional Information
 Earth MOID = .811819 au 
 Jupiter MOID = 2.35368 au 
 T_jup = 3.470 
[ show covariance matrix ]

Ephemeris | Orbit Diagram | Orbital Elements | Mission Design | Physical Parameters | Discovery Circumstances ]

Physical Parameter Table
Parameter Symbol Value Units Sigma Reference Notes
absolute magnitude H 17.5   n/a MPO434687  

469375 (2001 RN135)          Discovered 2001-Sep-12 by LINEAR at Socorro
Reference: Last Updated: 2016-08-22
Ephemeris | Orbit Diagram | Orbital Elements | Mission Design | Physical Parameters | Discovery Circumstances ]
ABOUT SSD CREDITS/AWARDS PRIVACY/COPYRIGHT GLOSSARY LINKS
FirstGov
(server date/time)  
NASA Home Page
Site Manager:   Ryan S. Park
Webmaster  Alan B. Chamberlin